TimeMST,TemperatureF,Dew PointF,Humidity,Sea Level PressureIn,VisibilityMPH,Wind Direction,Wind SpeedMPH,Gust SpeedMPH,PrecipitationIn,Events,Conditions,WindDirDegrees,DateUTC
12:57 AM,81.0,42.1,25,29.76,10.0,WSW,3.5,-,N/A,,Clear,240,2013-06-05 07:57:00
1:57 AM,80.1,42.1,26,29.75,10.0,SSW,3.5,-,N/A,,Clear,210,2013-06-05 08:57:00
2:57 AM,79.0,39.9,25,29.75,10.0,South,5.8,-,N/A,,Clear,190,2013-06-05 09:57:00
3:57 AM,77.0,39.9,26,29.75,10.0,South,3.5,-,N/A,,Clear,190,2013-06-05 10:57:00
4:57 AM,75.0,39.9,28,29.76,10.0,Calm,Calm,-,N/A,,Clear,0,2013-06-05 11:57:00
5:57 AM,75.0,41.0,29,29.77,10.0,ENE,3.5,-,N/A,,Clear,70,2013-06-05 12:57:00
6:57 AM,79.0,39.9,25,29.79,10.0,Calm,Calm,-,N/A,,Clear,0,2013-06-05 13:57:00
7:57 AM,84.2,37.4,19,29.81,10.0,Calm,Calm,-,N/A,,Partly Cloudy,0,2013-06-05 14:57:00
8:57 AM,87.8,39.2,18,29.81,10.0,SSE,5.8,-,N/A,,Partly Cloudy,160,2013-06-05 15:57:00
9:57 AM,89.6,39.2,17,29.82,10.0,SSW,4.6,-,N/A,,Partly Cloudy,200,2013-06-05 16:57:00
10:57 AM,93.2,26.6,9,29.82,7.0,SSW,4.6,-,N/A,,Partly Cloudy,200,2013-06-05 17:57:00
11:57 AM,96.8,30.2,10,29.80,10.0,Variable,3.5,-,N/A,,Partly Cloudy,0,2013-06-05 18:57:00
12:57 PM,100.0,34.0,10,29.78,10.0,Variable,3.5,-,N/A,,Clear,0,2013-06-05 19:57:00
1:57 PM,102.0,32.0,9,29.76,10.0,SSW,6.9,-,N/A,,Clear,210,2013-06-05 20:57:00
2:57 PM,102.9,30.0,8,29.74,10.0,Variable,4.6,-,N/A,,Clear,0,2013-06-05 21:57:00
3:57 PM,104.0,27.0,7,29.71,10.0,South,3.5,-,N/A,,Clear,170,2013-06-05 22:57:00
4:57 PM,104.0,28.0,7,29.68,10.0,Calm,Calm,-,N/A,,Partly Cloudy,0,2013-06-05 23:57:00
5:57 PM,105.1,30.0,7,29.68,10.0,West,9.2,-,N/A,,Partly Cloudy,280,2013-06-06 00:57:00
6:57 PM,102.0,30.0,8,29.68,10.0,WNW,6.9,-,N/A,,Clear,290,2013-06-06 01:57:00
7:57 PM,98.1,33.1,10,29.68,10.0,West,4.6,-,N/A,,Partly Cloudy,260,2013-06-06 02:57:00
8:57 PM,93.0,37.0,14,29.70,10.0,SW,4.6,-,N/A,,Partly Cloudy,220,2013-06-06 03:57:00
9:57 PM,88.0,37.0,16,29.71,10.0,SSW,5.8,-,N/A,,Clear,210,2013-06-06 04:57:00
10:57 PM,84.0,42.1,23,29.72,10.0,Calm,Calm,-,N/A,,Clear,0,2013-06-06 05:57:00
11:57 PM,82.9,44.1,25,29.73,10.0,Calm,Calm,-,N/A,,Clear,0,2013-06-06 06:57:00